Current weather by "City, St" or "zip code"  
 
Advertise Here

Current Conditions: Georgetown Scott County Regional Airport, KY

Overcast


54.0 F

Last Updated on Feb 28 2021, 8:15 am EST
Humidity: 100%
Wind Speed: NE 10.4 mph
Barometer 29.89 in
Dewpoint: 53.6 F
Visibility: 10.00 mi
Precip: --
Heat Index: NA
Wind Chill: 51 F
Current conditions at:

Georgetown Scott County Regional Airport, KY (K27K)

Lat: 38.23444 Lon: 84.43469

Local Radar Image active severe weather and emergency alerts image image weather storm and storm spotter reports image weather observation monitoring service image
Local
Radar
Active
Alerts
Storm Reports Obs
Monitoring

Sign-up For Email & Text Message Weather Alert Notification Services


Advertise Here

Observation History for Georgetown Scott County Regional Airport, KY


Time Wind
(mph)
Vis
(mi)
Weather Precip (in) Temperature (F) Relative
Humidity
Wind
Chill
(F)
Heat
Index
(F)
Pressure
Air Dwpt altimeter
(in)
sea level
(mb)
Rmks
8:15 am EST NE 10.4 10.00 Overcast -- 54.0 53.6 100% 51 NA 29.89 M
7:55 am EST N 3.5 4.00 Overcast -- 54.0 53.6 100% NA NA 29.89 M
7:15 am EST NE 9.2 2.50 Overcast -- 54.0 53.6 100% 51 NA 29.91 M
6:55 am EST N 6.9 10.00 Overcast -- 54.0 53.6 100% 52 NA 29.93 M
6:15 am EST E 10.4 G 17.3 10.00 Overcast -- 54.0 53.6 100% 51 NA 29.93 M
5:55 am EST SE 5.8 10.00 Overcast -- 54.0 53.6 100% 53 NA 29.95 M
5:15 am EST SE 11.5 7.00 Overcast -- 55.0 53.6 94% 52 NA 29.95 M
4:15 am EST SE 10.4 7.00 Overcast -- 54.0 53.6 100% 51 NA 29.98 M
3:15 am EST SE 4.6 7.00 Overcast -- 52.0 51.8 100% 51 NA 30.02 M
2:55 am EST SE 4.6 5.00 Overcast -- 52.0 51.8 100% 51 NA 30.03 M
2:15 am EST SE 3.5 7.00 Overcast -- 52.0 51.8 100% NA NA 30.05 M
1:15 am EST N 0.0 5.00 Overcast -- 50.0 50.0 100% NA NA 30.06 M
12:55 am EST N 0.0 5.00 Overcast -- 50.0 50.0 100% NA NA 30.07 M
12:15 am EST NE 3.5 4.00 Overcast -- 50.0 48.2 94% NA NA 30.09 M
11:15 pm EST N 11.5 10.00 Overcast -- 50.0 46.4 88% 46 NA 30.06 M
10:15 pm EST E 6.9 10.00 Overcast -- 50.0 46.4 88% 47 NA 30.08 M
9:55 pm EST E 6.9 10.00 Overcast -- 50.0 46.4 88% 47 NA 30.09 M
9:15 pm EST NE 8.1 10.00 Overcast -- 50.0 46.4 88% 47 NA 30.13 M
8:55 pm EST E 6.9 10.00 Overcast -- 50.0 46.4 88% 47 NA 30.13 M
8:15 pm EST E 3.5 10.00 Mostly Cloudy -- 50.0 46.4 88% NA NA 30.16 M
7:15 pm EST N 0.0 10.00 Overcast -- 50.0 46.4 88% NA NA 30.15 M
6:15 pm EST N 0.0 10.00 Overcast -- 52.0 48.2 88% NA NA 30.13 M
5:55 pm EST N 0.0 10.00 Overcast -- 52.0 46.4 82% NA NA 30.13 M
5:15 pm EST E 3.5 10.00 Partly Cloudy -- 54.0 46.4 77% NA NA 30.12 M

Regional Weather Observation


Georgetown Scott County Regional Airport, KY (K27K)

Overcast
54.0 F

Lexington Blue Grass Airport, KY (KLEX)

Overcast
60.0 F

Mount Sterling-Montgomery County Airport, KY (KIOB)

Overcast
55.0 F

Madison Municipal Airport, IN (KIMS)

Overcast
54.0 F

Louisville, Bowman Field Airport, KY (KLOU)

Light Rain Fog/Mist
58.0 F

Flemingsburg Fleming-Mason Airport, KY (KFGX)

Heavy Rain
54.0 F
Advertise Here

Advertise Here